Main page
METAR-TAF:

METAR-TAF

Airports :

Bojnourd, Iran

Bojnord Airport

latitude: 37-28N, longitude: 057-20E, elevation: 1074 m

Current weather observation

The report was made 30 minutes ago, at 16:00 UTC
Calm wind
Temperature 1°C
Humidity 75%
Pressure 1023 hPa
Visibility 10 km or more
no clouds below 1500 m and no cumulonimbus

METAR: OIMN 181600Z 00000KT CAVOK 01/M03 Q1023

Time: 20:00 (16:30 UTC)


TAF: missing

Weather observations and forecasts of more than 4000 airports (METAR and TAF reports).

The available stations are represented by yellow and red dots on the map.

Hover mouse over dot to see the name of the station.

Then click to see weather observations and forecasts.

To change the map : click on the green buttons with a black cross to zoom in, on the green button with a dash to zoom out, or on the green arrows for adjacent maps.


METAR-TAF: